This demonstration page uses our WeatherBlox Daily Observations layout. Learn more.

41.55636, -103.73856

Hourly Observations for December 23, 2016

Temp ( °F °C ) Dew Point ( °F °C ) Humidity (%) Winds ( mph kmh ) Pressure ( in mb ) Visibility ( mi km ) Precip ( " mm )
12:53 am 00:53 Clear 25 -3.9 22 -5.6 88 88 E 7 11 29.83 1010 10 16.0934 0 0
1:53 am 01:53 Clear 24 -4.4 21 -6.1 88 88 E 9 15 29.81 1010 10 16.0934 0 0
2:53 am 02:53 Clear 22 -5.6 18 -7.8 85 85 E 7 11 29.81 1009 10 16.0934 0 0
3:53 am 03:53 Clear with Mist and Fog 21 -6.1 19 -7.2 92 92 Calm 29.79 1009 6 9.65604 0 0
4:53 am 04:53 Mostly Clear with Mist and Fog 18 -7.8 15 -9.4 88 88 Calm 29.79 1009 1.25 2.011675 0 0
5:01 am 05:01 Mostly Cloudy with Mist and Fog 17 -8.3 14 -10 88 88 NNW 5 7 29.94 1014 1.25 2.011675 0 0
5:09 am 05:09 Mostly Cloudy 19 -7.2 15 -9.4 84 84 N 5 7 29.91 1013 10 16.0934 0 0
5:20 am 05:20 Cloudy 19 -7 16 -9 86 86 NNW 6 9 29.91 1013 8 12.87472 0 0
5:35 am 05:35 Cloudy 18 -7.8 15 -9.4 88 88 N 3 6 29.94 1014 10 16.0934 0 0
5:53 am 05:53 Cloudy with Mist and Fog 18 -7.8 15 -9.4 88 88 N 7 11 29.8 1009 2.5 4.02335 0 0
6:02 am 06:02 Mostly Cloudy with Mist and Fog 19 -7 16 -9 86 86 NNW 8 13 29.94 1014 0.75 1.207005 0 0
6:19 am 06:19 Mostly Cloudy with Mist and Fog 17 -8.3 14 -10 88 88 N 7 11 29.97 1015 1.5 2.41401 0 0
6:24 am 06:24 Mostly Cloudy with Mist and Fog 18 -8 14 -10 86 86 N 8 13 29.97 1015 4 6.43736 0 0
6:32 am 06:32 Partly Cloudy 19 -7 18 -8 93 93 NNW 6 9 29.94 1014 10 16.0934 0 0
6:53 am 06:53 Clear 21 -6.1 17 -8.3 85 85 WNW 10 17 29.82 1010 10 16.0934 0 0
7:53 am 07:53 Sunny 25 -3.9 19 -7.2 78 78 NW 12 19 29.87 1011 10 16.0934 0 0
8:53 am 08:53 Sunny 30 -1.1 21 -6.1 69 69 WNW 12 19 29.86 1011 10 16.0934 0 0
9:53 am 09:53 Sunny 37 2.8 19 -7.2 48 48 WNW 20 31 29.89 1012 10 16.0934 0 0
10:53 am 10:53 Sunny 41 5 19 -7.2 41 41 WNW 20 31 29.9 1013 10 16.0934 0 0
11:53 am 11:53 Sunny 45 7.2 14 -10 29 29 WNW 20 31 29.89 1012 10 16.0934 0 0
12:53 pm 12:53 Sunny 47 8.3 10 -12.2 22 22 WNW 16 26 29.88 1012 10 16.0934 0 0
1:53 pm 13:53 Sunny 48 8.9 4 -15.6 16 16 NW 17 28 29.87 1012 10 16.0934 0 0
2:53 pm 14:53 Sunny 48 8.9 4 -15.6 16 16 NW 9 15 29.9 1012 10 16.0934 0 0
3:53 pm 15:53 Sunny 44 6.7 8 -13.3 23 23 NNE 3 6 29.92 1013 10 16.0934 0 0
4:53 pm 16:53 Clear 32 0 10 -12.2 40 40 NE 3 6 29.97 1015 10 16.0934 0 0
5:53 pm 17:53 Clear 29 -1.7 10 -12.2 45 45 SSE 6 9 29.99 1016 10 16.0934 0 0
6:53 pm 18:53 Clear 22 -5.6 10 -12.2 60 60 ESE 5 7 30.01 1016 10 16.0934 0 0
7:53 pm 19:53 Clear 22 -5.6 9 -12.8 57 57 E 7 11 30 1016 10 16.0934 0 0
8:53 pm 20:53 Clear 23 -5 9 -12.8 55 55 ESE 6 9 29.99 1016 10 16.0934 0 0
9:53 pm 21:53 Clear 24 -4.4 9 -12.8 52 52 E 7 11 29.96 1015 10 16.0934 0 0
10:53 pm 22:53 Clear 26 -3.3 9 -12.8 48 48 E 5 7 29.94 1014 10 16.0934 0 0
11:53 pm 23:53 Clear 28 -2.2 10 -12.2 47 47 E 12 19 29.91 1013 10 16.0934 0 0

Powered by AerisWeather